User: anonymous   Login
Location: Doussal
(55.6167°N, 116.8333°W)
Time: 05:38:02
(UTC+00:00)
Language:

ISS - Orbit

View from above orbital plane
View from above orbital plane
View from above satellite
View from above satellite

Ground track
Ground track

The orbit data is extracted from the following two-line orbital elements,

1 25544U 98067A   23334.88360323  .00024407  00000-0  43434-3 0  9996
2 25544  51.6428 222.8885 0000854   1.5392 103.8408 15.49998542427643
Epoch (UTC): 30 November 2023 21:12:23
Eccentricity: 0.0000854
inclination: 51.6428°
perigee height: 416 km
apogee height: 417 km
right ascension of ascending node: 222.8885°
argument of perigee: 1.5392°
revolutions per day: 15.49998542
mean anomaly at epoch: 103.8408°
orbit number at epoch: 42764

The dashed part of the orbit path shows where the satellite is in the earth's shadow,  

DLR